Flag for U.S.A. Weather past 2 weeks in Fresno, California, U.S.A.

Now
94 °F

Sunny.


Feels Like: 91 °F
Forecast: 65 / 92 °F
Wind: 5 mph from West

Location: Fresno Air Terminal

Current Time: Sep 23, 2014 at 5:27:02 PM

Latest Report: Sep 23, 2014 at 4:53 PM


Visibility: 10 mi

Pressure: 29.84 "Hg

Humidity: 21%

Dew point: 49 °F

Location of FresnoLocation

Historic Weather in Fresno — Graph

°F

Fresno temperature yesterday

Maximum temperature yesterday: 91 °F (at 4:53 PM)
Minimum temperature yesterday: 64 °F (at 6:53 AM)
Average temperature yesterday: 78 °F

Past Weeks' High & Low Weather Summary

 TemperatureHumidityPressure
High103 °F (Sep 14, 2:53 PM)75% (Sep 22, 6:53 AM)30.00 "Hg (Sep 22, 6:53 AM)
Low63 °F (Sep 9, 5:53 AM)10% (Sep 9, 3:53 PM)29.66 "Hg (Sep 17, 5:53 PM)
Average82 °F37%29.82 "Hg
* Reported Sep 8 3:53 PM — Sep 23 3:53 PM, Fresno, Weather by CustomWeather, © 2014

Note: Actual official high and low records may vary slightly from our data, if they occured in-between our weather recording intervals... More about our weather records

Advertising

Fresno weather history for previous 24 hours

 ConditionsComfort  
Time TempWeatherWind HumidityBarometerVisibility
3:53 PM
Sep 23
93 °FSunny.5 mph25%29.86 "Hg10 mi
2:53 PM93 °FSunny.5 mph26%29.88 "Hg10 mi
1:53 PM92 °FSunny.6 mph27%29.90 "Hg10 mi
12:53 PM89 °FSunny.3 mph30%29.93 "Hg10 mi
11:53 AM85 °FSunny.5 mph36%29.95 "Hg10 mi
10:53 AM81 °FSunny.5 mph42%29.96 "Hg9 mi
9:53 AM76 °FPassing clouds.No wind50%29.97 "Hg9 mi
8:53 AM72 °FSunny.3 mph59%29.97 "Hg8 mi
7:53 AM69 °FSunny.6 mph66%29.96 "Hg9 mi
6:53 AM68 °FPassing clouds.No wind65%29.94 "Hg10 mi
5:53 AM68 °FClear.3 mph68%29.93 "Hg10 mi
4:53 AM68 °FClear.No wind65%29.92 "Hg10 mi
3:53 AM69 °FClear.7 mph66%29.92 "Hg10 mi
2:53 AM71 °FClear.No wind61%29.91 "Hg10 mi
1:53 AM72 °FClear.6 mph57%29.93 "Hg10 mi
12:53 AM74 °FClear.8 mph53%29.92 "Hg10 mi
11:53 PM
Sep 22
77 °FClear.7 mph48%29.92 "Hg10 mi
10:53 PM78 °FClear.5 mph46%29.92 "Hg10 mi
9:53 PM81 °FClear.9 mph42%29.91 "Hg10 mi
8:53 PM83 °FClear.7 mph41%29.90 "Hg10 mi
7:53 PM85 °FPassing clouds.8 mph37%29.88 "Hg10 mi
6:53 PM88 °FPassing clouds.8 mph34%29.88 "Hg10 mi
5:53 PM91 °FSunny.10 mph28%29.87 "Hg10 mi
Weather by CustomWeather, © 2014

See weather overviewHow to use our weather pages